Weather History for St.-Anicet, QC

Change the Weather History Date:

Tuesday, October 8, 2013

  Actual Average Record
Temperature  
Mean Temperature 48 °F -  
Max Temperature 60 °F - - ()
Min Temperature 36 °F - - ()
Degree Days  
Heating Degree Days 16    
Moisture  
Dew Point 40 °F    
Average Humidity 71    
Maximum Humidity 99    
Minimum Humidity 40    
Precipitation  
Precipitation 0.00 in - - ()
Sea Level Pressure  
Sea Level Pressure 30.21 in    
Wind  
Wind Speed 8 mph ()    
Max Wind Speed 16 mph    
Max Gust Speed 26 mph    
T = Trace of Precipitation, MM = Missing Value Source: Averaged Metar Reports

Daily Weather History Graph

Daily Weather History Graph

Search for Another Location

Airport:

Trip Planner

Search our weather history database for the weather conditions in past years. The results will help you decide how hot, cold, wet, or windy it might be!

Date:

Astronomy

Oct. 08, 2013 Rise Set
Actual Time 7:04 AM EDT 6:24 PM EDT
Civil Twilight 6:34 AM EDT 6:53 PM EDT
Nautical Twilight 6:00 AM EDT 7:27 PM EDT
Astronomical Twilight 5:26 AM EDT 8:01 PM EDT
Moon 11:05 AM EDT (10/8) 8:48 PM EDT (10/8)
Length of Visible Light 12h 18m
Length of Day
11h 19m
Waxing Crescent, 16% of the Moon is Illuminated
Oct 8
Waxing Crescent
Oct 11
First Quarter
Oct 18
Full
Oct 26
Last Quarter
Nov 3
New

Hourly Weather History & Observations

Time (EDT) Temp. Windchill Dew Point Humidity Pressure Visibility Wind Dir Wind Speed Gust Speed Precip Events Conditions
12:00 AM 52.5 °F - 43.2 °F 70% 29.87 in - West 16.1 mph 26.5 mph N/A   Unknown
1:00 AM 50.0 °F - 42.1 °F 74% 29.93 in - West 11.5 mph 21.9 mph N/A   Unknown
2:00 AM 49 °F - 41 °F 67% 29.98 in - West 8.1 mph - -  
2:00 AM 49.1 °F - 41.4 °F 75% 29.98 in - West 8.1 mph - N/A   Unknown
3:00 AM 47.8 °F - 40.6 °F 76% 30.01 in - West 10.4 mph 18.4 mph N/A   Unknown
4:00 AM 46.4 °F 42.4 °F 40.8 °F 81% 30.05 in - West 8.1 mph - N/A   Unknown
5:00 AM 46.2 °F 42.7 °F 40.6 °F 81% 30.08 in - West 6.9 mph - N/A   Unknown
6:00 AM 46.4 °F 42.4 °F 40.1 °F 79% 30.12 in - West 8.1 mph - N/A   Unknown
7:00 AM 46.2 °F 41.7 °F 40.5 °F 80% 30.15 in - West 9.2 mph - N/A   Unknown
8:00 AM 47 °F - 41 °F 73% 30.19 in - West 5.8 mph - -  
8:00 AM 46.8 °F - 41.0 °F 80% 30.19 in - West 5.8 mph - N/A   Unknown
9:00 AM 49.5 °F - 41.7 °F 75% 30.23 in - West 9.2 mph - N/A   Unknown
10:00 AM 51.8 °F - 41.5 °F 68% 30.26 in - West 8.1 mph - N/A   Unknown
11:00 AM 54.3 °F - 40.6 °F 60% 30.27 in - WNW 6.9 mph - N/A   Unknown
12:00 PM 55.2 °F - 41.0 °F 59% 30.28 in - WSW 10.4 mph - N/A   Unknown
1:00 PM 56.5 °F - 39.9 °F 54% 30.28 in - WSW 11.5 mph - N/A   Unknown
2:00 PM 58 °F - 40 °F 40% 30.28 in - West 9.2 mph - -  
2:00 PM 58.5 °F - 40.3 °F 51% 30.28 in - West 9.2 mph - N/A   Unknown
3:00 PM 59.5 °F - 39.6 °F 48% 30.28 in - West 8.1 mph - N/A   Unknown
4:00 PM 59.7 °F - 39.2 °F 47% 30.29 in - West 9.2 mph - N/A   Unknown
5:00 PM 59.4 °F - 40.3 °F 49% 30.30 in - WSW 6.9 mph - N/A   Unknown
6:00 PM 56.8 °F - 40.1 °F 54% 30.32 in - WSW 4.6 mph - N/A   Unknown
7:00 PM 46.0 °F - 41.2 °F 83% 30.34 in - Calm Calm - N/A   Unknown
8:00 PM 41 °F - 39 °F 90% 30.35 in - North 1.2 mph - -  
8:00 PM 40.8 °F - 39.0 °F 93% 30.35 in - North 1.2 mph - N/A   Unknown
9:00 PM 38.8 °F - 37.8 °F 96% 30.36 in - South 1.2 mph - N/A   Unknown
10:00 PM 37.8 °F - 37.0 °F 97% 30.37 in - Calm Calm - N/A   Unknown
11:00 PM 36.1 °F - 35.8 °F 99% 30.37 in - Calm Calm - N/A   Unknown